Zurück zum Katalog

STARLINK-3586

AktivKommunikationVLEO
NORAD 51795·PAYLOAD·🇺🇸 United States

Gestartet Feb 25, 2022 von Vandenberg Space Force Base

Loading…

Nächste Überflüge (nächste 24 Stunden)

TLE

AktuellSource: CelesTrak SupGP

Epoche: Sep 14, 2026, 20:55 UTC

1 51795C 22017AD  26257.87201389 -.00007712  00000+0 -22781-3 0  2577
2 51795  53.1583 205.6833 0001345  97.3081 334.8677 15.34399162    14

Verfolge STARLINK-3586 in Echtzeit mit AllMySat

Download on the App Store